Location: Newark
(52.1031°N, 9.3600°E)
Time: 02:33:00
(UTC+00:00)

nSIGHT-1 - Pass Details

Date: 18 December 2019
Orbit: 314 x 316 km, 51.6° (Epoch: 23 January)

Event Time Altitude Azimuth Distance (km) Brightness Sun altitude
Exits shadow 05:16:41 69° 108° (ESE) 344 ? -18.6°
Drops below altitude 10° 05:19:08 10° 89° (E) 1,218 ? -18.2°
Sets 05:21:06 0° 89° (E) 2,046 ? -17.9°
